Wind_Speed
24 26 29 31 33 34 36 37 38 39 40 41 40 40 38 37 37 35 34 33 33 32 31 31 31 30 27 25 24 22 22 21 21 21 21 20 19 18 19 19 18 17 17 17
22 25 28 30 32 34 36 38 39 40 41 43 43 41 39 39 39 38 38 37 36 35 32 32 32 31 29 27 26 25 25 24 23 23 23 22 20 19 19 19 19 19 18 18
19 22 25 28 31 33 35 38 39 40 40 41 43 41 38 38 40 40 39 38 36 35 34 33 33 32 31 29 27 27 28 28 26 25 24 23 22 20 19 19 19 19 18 19
17 20 24 26 29 32 34 35 37 38 39 39 40 41 35 36 36 36 35 34 33 32 33 32 31 32 31 30 30 30 31 30 28 26 24 23 22 21 20 19 19 20 20 20
15 19 22 25 28 30 32 32 33 34 35 35 34 37 32 33 33 32 31 31 29 28 28 28 29 31 32 32 30 31 31 32 30 27 24 22 22 21 21 20 20 21 21 21
17 21 25 27 29 30 32 32 33 32 31 30 28 29 28 28 28 29 29 28 27 25 24 25 28 30 31 31 30 30 30 29 28 26 24 22 21 21 21 21 21 22 22 23
20 24 28 31 32 33 33 33 33 32 29 26 24 24 24 25 25 25 25 25 24 24 24 23 24 26 28 29 29 28 28 28 27 24 23 22 21 21 22 22 23 23 24 24
26 27 31 34 35 35 34 34 33 32 29 25 22 22 22 23 22 22 22 22 22 22 23 22 23 24 25 27 27 25 25 25 23 22 21 21 21 21 22 22 23 24 24 25
32 33 34 35 37 37 37 34 33 32 29 26 22 21 22 21 20 20 21 21 23 22 22 22 23 24 24 26 25 23 21 20 19 19 18 19 20 21 23 23 23 24 24 25
37 38 37 38 38 38 37 34 31 29 27 25 23 22 22 21 20 20 21 22 22 22 22 22 22 22 23 22 20 19 18 17 16 17 18 19 21 22 23 23 24 24 24 25
39 38 37 35 33 32 30 30 28 26 25 23 22 20 20 19 18 20 20 20 20 21 22 22 23 23 21 17 17 16 16 16 16 17 18 19 21 22 23 23 23 23 23 23
37 34 30 26 22 20 19 20 21 21 21 21 19 18 17 16 14 15 17 17 17 17 17 18 18 15 14 12 13 14 14 15 16 16 18 20 21 21 22 22 21 21 21 21
33 28 23 17 13 11 10 11 14 16 16 16 17 15 14 14 12 11 11 11 11 11 11 10 11 10 9 9 11 12 13 15 16 17 19 19 20 21 22 22 21 20 20 20
30 26 21 17 14 11 6 3 5 8 8 9 11 10 9 8 9 8 7 6 6 7 9 10 10 9 9 9 9 10 12 15 17 19 20 21 22 21 22 21 21 20 19 19
29 25 20 17 16 13 8 4 2 1 2 4 5 3 4 2 2 3 4 4 4 6 8 9 10 9 9 10 10 12 13 15 18 20 21 23 22 21 20 19 18 18 18 19
28 25 21 19 17 14 12 9 7 6 6 6 4 2 3 3 2 2 1 2 4 6 7 8 9 10 10 11 11 12 14 16 19 21 21 21 20 17 16 16 17 18 18 19
27 24 22 18 16 14 12 12 11 9 8 8 7 6 5 4 3 1 1 2 4 5 7 8 9 10 10 11 12 14 15 16 17 18 18 17 17 17 17 17 18 19 19 20
25 22 21 19 16 14 13 11 11 10 10 9 8 7 5 4 3 1 0 2 3 4 4 5 7 8 9 11 12 14 15 16 16 17 17 18 19 19 18 18 19 20 20 21
23 20 19 18 15 14 12 11 11 10 9 8 7 6 5 4 3 2 1 1 2 3 4 5 6 7 8 10 12 14 15 16 17 18 19 19 20 20 20 20 21 21 20 21
21 19 18 17 14 12 11 10 10 9 9 8 7 6 5 3 3 2 1 1 2 2 3 4 5 6 8 10 12 13 15 16 18 19 19 19 20 20 20 20 20 20 19 20
20 19 17 16 14 12 10 8 8 7 6 5 5 4 4 3 3 2 1 1 2 2 4 6 7 8 10 11 13 14 16 17 18 18 19 19 19 19 20 19 19 18 18 19
20 18 16 14 12 10 8 6 6 6 5 4 3 3 2 2 2 3 2 2 2 3 5 7 9 10 12 13 14 15 17 18 18 18 19 19 19 19 19 18 18 19 19 19
21 17 15 14 11 9 7 5 4 4 3 3 2 2 2 2 2 1 1 1 3 4 6 9 11 12 13 14 15 16 17 18 18 18 18 18 18 18 18 18 18 18 19 19
21 19 16 14 12 10 8 5 4 3 2 2 1 1 1 1 1 1 1 2 4 6 7 10 11 13 14 15 16 17 17 17 17 17 17 17 18 18 18 18 18 18 18 18
22 20 18 15 13 11 9 8 5 4 3 1 1 1 2 2 2 2 2 3 5 7 9 10 12 13 15 16 16 16 17 16 16 17 17 17 17 17 17 17 16 16 16 16
23 22 21 18 16 13 11 9 7 5 4 3 3 3 3 4 4 3 4 4 6 8 10 11 12 14 15 15 16 16 17 17 17 17 17 17 17 16 15 14 14 14 14 14
Wind_Direction
253 255 257 259 261 262 263 264 265 265 266 266 266 267 268 268 270 271 271 273 276 280 282 282 284 285 286 287 285 282 279 276 275 273 272 271 271 273 274 275 275 274 273 274
260 262 262 263 265 265 266 266 266 266 266 266 266 266 267 268 268 268 269 271 273 276 278 279 281 281 280 282 281 280 278 277 275 272 271 269 268 269 271 271 273 272 270 269
265 265 265 265 265 266 266 267 267 267 267 268 268 266 267 266 265 265 266 267 270 271 273 274 274 274 274 275 276 276 276 276 273 268 266 267 268 270 270 270 269 270 270 269
273 274 272 271 271 271 271 271 271 271 271 270 271 269 265 264 264 263 263 263 265 267 268 269 267 265 265 265 266 270 273 271 269 266 264 266 268 268 270 270 269 269 269 270
289 285 283 282 282 280 280 278 277 277 277 277 276 275 270 265 262 260 259 259 260 261 262 263 262 260 259 257 257 263 266 266 263 264 265 266 267 269 269 269 268 269 270 271
296 292 290 290 289 289 287 284 282 281 282 283 280 278 274 268 263 258 255 253 253 252 252 256 258 257 255 253 254 258 260 260 261 261 261 264 266 269 270 270 269 270 271 272
300 299 296 294 293 291 289 287 286 284 283 285 281 275 270 268 262 253 247 246 245 244 244 248 251 248 247 250 251 250 252 254 256 259 261 263 267 269 270 271 270 270 271 272
304 301 297 295 292 289 285 283 282 281 282 281 275 269 266 262 258 250 241 239 239 237 237 238 241 242 243 246 246 244 247 252 254 257 261 264 267 270 270 271 271 271 272 272
306 301 295 291 288 283 280 275 275 275 273 274 271 267 262 259 255 250 245 242 238 236 234 234 232 231 236 237 238 240 245 250 254 256 261 265 267 269 272 272 272 273 274 274
311 305 299 291 283 277 274 271 266 264 265 268 264 261 262 261 254 251 246 245 241 239 239 236 229 227 229 232 234 236 242 246 249 256 262 266 269 271 272 274 275 276 276 275
317 313 307 299 290 283 271 264 260 256 255 256 258 260 262 262 258 253 250 248 242 240 240 236 228 226 228 232 235 240 245 250 257 259 263 267 270 272 273 274 275 276 275 275
327 324 320 316 308 297 277 262 252 250 250 251 255 259 263 271 269 259 253 248 245 243 247 241 234 236 234 242 246 246 245 251 257 263 269 272 275 275 274 273 274 275 274 274
340 339 339 337 333 315 290 265 249 245 251 251 250 254 263 272 275 271 264 253 253 250 255 250 255 252 247 254 250 245 250 254 260 268 272 275 276 275 277 276 275 276 276 276
353 353 0 7 11 6 352 283 236 230 235 240 244 255 265 275 264 268 265 256 248 255 271 281 286 281 272 270 259 256 264 266 269 275 277 275 276 275 276 275 275 275 275 275
6 10 17 20 24 32 36 60 103 159 178 186 206 260 268 258 230 245 266 277 281 287 290 296 298 293 282 273 266 269 272 275 276 278 279 280 281 276 274 272 275 274 274 276
16 24 29 32 36 41 49 69 76 92 104 118 125 102 112 122 129 153 212 280 293 297 294 298 297 291 285 282 279 280 284 283 282 283 284 286 288 288 283 282 279 279 279 281
21 28 30 32 41 49 57 67 79 95 97 98 103 104 111 109 122 144 231 279 298 299 291 288 284 284 282 287 289 290 292 289 288 288 288 291 289 292 290 287 283 282 285 287
25 27 29 35 43 52 59 66 70 79 89 95 102 105 105 106 113 119 332 312 309 298 290 291 296 294 289 287 288 291 292 294 294 294 294 294 294 293 294 292 289 287 287 287
25 30 34 38 43 51 59 65 70 73 82 90 96 96 96 102 102 101 93 14 311 303 295 295 297 297 294 291 292 294 297 298 298 298 298 298 297 296 294 293 292 290 288 287
27 32 35 35 40 50 56 64 70 71 77 77 79 83 79 83 79 68 65 11 322 317 315 316 314 308 305 304 303 302 302 302 302 302 301 300 299 298 296 295 293 291 289 288
28 30 33 35 40 49 52 58 65 66 67 70 68 66 58 54 57 57 54 25 353 336 332 328 322 318 314 312 311 310 309 308 307 305 304 303 302 301 299 297 295 292 291 289
24 26 29 30 35 40 40 51 56 54 42 53 51 52 52 61 69 70 70 45 4 341 335 331 326 322 319 318 316 315 314 313 310 309 307 306 305 304 303 301 297 294 293 292
19 20 22 26 30 28 29 33 31 22 17 25 36 71 73 78 80 67 56 23 345 337 336 333 329 327 326 324 321 320 318 316 313 311 310 310 309 308 306 304 301 298 297 295
14 15 14 13 14 12 10 1 341 340 350 4 69 132 108 87 41 344 337 335 333 334 335 333 331 330 330 329 327 325 322 319 316 315 314 313 312 312 311 308 305 303 302 300
9 8 8 6 2 357 355 350 333 320 308 293 222 212 237 249 268 277 290 315 327 331 334 335 333 332 333 334 333 331 328 324 321 319 318 316 314 313 312 311 309 309 308 306
6 6 5 3 358 353 347 342 331 305 277 254 242 248 255 256 255 263 276 302 321 329 334 336 337 337 338 339 338 337 335 333 330 327 325 323 321 319 317 316 316 316 316 315
Height
5862 5863 5862 5861 5860 5860 5859 5858 5858 5858 5857 5857 5857 5857 5859 5859 5858 5858 5857 5857 5856 5856 5856 5857 5857 5857 5858 5859 5859 5859 5859 5859 5859 5859 5859 5858 5858 5858 5857 5856 5856 5856 5856 5855
5858 5857 5856 5854 5853 5852 5851 5849 5848 5848 5847 5846 5846 5848 5850 5849 5848 5848 5848 5848 5849 5849 5849 5849 5850 5850 5851 5852 5852 5853 5853 5853 5853 5853 5853 5853 5853 5852 5852 5851 5851 5851 5851 5850
5852 5851 5849 5847 5846 5844 5842 5840 5838 5838 5836 5835 5835 5838 5840 5839 5837 5838 5839 5840 5840 5841 5842 5842 5842 5843 5844 5845 5845 5846 5846 5846 5846 5847 5847 5846 5847 5847 5846 5846 5846 5846 5845 5845
5847 5845 5843 5840 5838 5835 5833 5831 5829 5827 5827 5826 5825 5825 5831 5828 5827 5827 5828 5830 5831 5832 5833 5834 5835 5835 5836 5837 5838 5839 5839 5839 5840 5840 5840 5841 5841 5841 5841 5841 5841 5840 5840 5840
5843 5840 5837 5833 5831 5827 5825 5822 5821 5819 5817 5817 5816 5815 5819 5816 5817 5817 5818 5820 5822 5823 5825 5826 5826 5828 5828 5829 5830 5832 5832 5832 5833 5834 5835 5835 5836 5835 5835 5835 5835 5835 5834 5834
5839 5834 5830 5826 5823 5819 5815 5813 5811 5810 5809 5809 5808 5807 5807 5806 5807 5809 5810 5812 5814 5815 5817 5818 5818 5820 5820 5822 5823 5824 5825 5826 5827 5828 5829 5829 5830 5830 5830 5830 5829 5829 5828 5827
5834 5828 5822 5817 5813 5810 5806 5804 5802 5801 5801 5802 5801 5800 5799 5799 5800 5801 5803 5804 5806 5808 5809 5810 5811 5812 5813 5814 5815 5816 5818 5819 5820 5822 5823 5824 5824 5824 5824 5824 5824 5823 5822 5821
5826 5822 5814 5807 5802 5799 5796 5794 5794 5792 5792 5794 5794 5793 5793 5793 5793 5795 5796 5798 5799 5800 5801 5802 5803 5805 5806 5807 5808 5809 5811 5813 5815 5816 5817 5818 5819 5819 5818 5818 5818 5817 5816 5815
5816 5811 5805 5798 5791 5786 5784 5783 5783 5784 5784 5785 5787 5787 5787 5787 5788 5789 5790 5791 5793 5794 5794 5795 5796 5797 5799 5800 5802 5803 5806 5808 5810 5811 5812 5813 5813 5813 5813 5812 5811 5810 5810 5809
5804 5797 5791 5784 5779 5773 5771 5771 5774 5775 5776 5778 5780 5781 5782 5782 5783 5784 5784 5785 5787 5788 5789 5789 5789 5791 5793 5794 5797 5799 5802 5804 5805 5806 5807 5807 5808 5808 5807 5806 5805 5804 5803 5802
5793 5785 5777 5769 5763 5761 5761 5762 5763 5766 5769 5772 5774 5778 5777 5777 5778 5779 5780 5781 5782 5783 5784 5785 5785 5786 5788 5790 5792 5795 5798 5800 5800 5801 5801 5802 5802 5801 5801 5800 5799 5798 5797 5795
5785 5775 5766 5759 5754 5751 5751 5753 5756 5760 5763 5766 5769 5774 5772 5773 5774 5775 5776 5777 5779 5780 5781 5781 5782 5784 5786 5788 5790 5792 5794 5795 5795 5795 5795 5795 5795 5794 5793 5793 5792 5791 5790 5789
5778 5769 5762 5757 5754 5750 5748 5749 5752 5756 5760 5762 5765 5770 5769 5771 5772 5772 5773 5774 5776 5777 5778 5778 5780 5783 5785 5786 5787 5789 5790 5790 5790 5790 5789 5788 5788 5787 5786 5785 5785 5784 5783 5783
5774 5766 5761 5756 5752 5749 5748 5749 5751 5755 5757 5760 5763 5766 5767 5769 5770 5770 5771 5772 5773 5775 5776 5777 5778 5780 5782 5783 5784 5785 5786 5786 5785 5784 5783 5782 5780 5780 5780 5779 5778 5777 5777 5777
5775 5768 5762 5758 5754 5752 5751 5752 5753 5755 5758 5760 5763 5765 5766 5767 5768 5769 5770 5771 5772 5773 5774 5775 5776 5777 5778 5779 5780 5781 5782 5781 5780 5779 5778 5775 5774 5773 5772 5772 5771 5771 5771 5771
5777 5771 5766 5763 5760 5757 5756 5756 5757 5758 5759 5762 5764 5766 5766 5767 5768 5769 5770 5771 5772 5772 5773 5774 5774 5774 5775 5775 5776 5776 5776 5776 5775 5774 5772 5770 5769 5767 5766 5765 5765 5765 5765 5765
5780 5775 5771 5767 5765 5763 5763 5762 5761 5762 5763 5764 5766 5768 5768 5769 5769 5770 5771 5771 5772 5772 5772 5773 5773 5773 5772 5772 5772 5772 5772 5771 5771 5769 5768 5766 5764 5762 5762 5761 5760 5759 5759 5759
5783 5778 5775 5772 5770 5768 5769 5766 5766 5766 5766 5767 5768 5769 5769 5770 5770 5771 5771 5772 5772 5772 5772 5772 5772 5771 5771 5770 5770 5769 5768 5767 5766 5765 5764 5762 5760 5759 5757 5756 5755 5754 5753 5752
5787 5782 5779 5776 5773 5771 5770 5769 5769 5769 5769 5770 5770 5771 5771 5771 5772 5772 5772 5772 5773 5773 5772 5772 5771 5771 5770 5769 5768 5767 5765 5764 5762 5761 5759 5758 5756 5754 5753 5751 5750 5749 5747 5746
5791 5787 5783 5780 5777 5775 5775 5773 5772 5773 5772 5772 5772 5772 5772 5772 5773 5773 5773 5773 5773 5773 5772 5772 5771 5770 5769 5768 5767 5765 5763 5761 5759 5757 5755 5753 5751 5749 5748 5746 5744 5743 5741 5740
5795 5790 5787 5784 5781 5778 5777 5775 5775 5776 5776 5774 5773 5773 5773 5773 5773 5773 5773 5773 5773 5773 5772 5772 5771 5769 5768 5766 5765 5762 5760 5758 5756 5753 5751 5749 5747 5744 5742 5740 5738 5737 5736 5734
5798 5793 5789 5786 5783 5783 5779 5777 5777 5777 5775 5774 5774 5774 5773 5773 5773 5773 5773 5773 5773 5773 5772 5771 5770 5768 5766 5764 5762 5760 5757 5755 5752 5749 5747 5744 5742 5739 5737 5735 5733 5731 5730 5729
5800 5796 5792 5789 5787 5783 5780 5778 5777 5776 5775 5775 5774 5774 5774 5774 5774 5774 5774 5774 5773 5773 5772 5770 5769 5767 5765 5762 5760 5757 5754 5751 5748 5745 5743 5740 5737 5734 5732 5730 5728 5726 5724 5722
5802 5797 5793 5790 5786 5783 5780 5778 5777 5776 5775 5774 5774 5774 5774 5774 5774 5774 5774 5774 5773 5772 5771 5770 5768 5765 5763 5760 5757 5754 5751 5748 5745 5742 5739 5736 5733 5730 5728 5725 5723 5721 5719 5717
5804 5798 5794 5790 5786 5783 5780 5778 5776 5775 5774 5773 5773 5773 5774 5774 5774 5774 5773 5773 5772 5771 5770 5768 5766 5764 5761 5758 5755 5752 5748 5745 5742 5739 5735 5732 5729 5726 5724 5721 5719 5716 5714 5712
5805 5800 5795 5791 5786 5782 5779 5777 5775 5774 5773 5773 5772 5773 5772 5772 5772 5772 5772 5772 5771 5770 5768 5767 5765 5762 5759 5756 5753 5749 5746 5742 5739 5735 5732 5728 5725 5722 5720 5717 5715 5713 5711 5708